Location: G�ndlingen
(48.0142°N, 7.6396°E)
Time: 07:58:03
(UTC+00:00)

Cosmos 371 Rocket - Pass Details

Date: 05 July 2020
Orbit: 684 x 699 km, 74.0° (Epoch: 04 August)

Event Time Altitude Azimuth Distance (km) Brightness Sun altitude
Rises 23:42:08 0° 332° (NNW) 3,085 7.7 -19.3°
Reaches altitude 10° 23:44:32 10° 326° (NW) 2,160 6.6 -19.3°
Maximum altitude 23:49:08 44° 255° (WSW) 964 3.8 -19.2°
Enters shadow 23:50:24 36° 216° (SW) 1,099 3.9 -19.2°
